Meath Environmental Platform

Observations for Trim Market St

Time AQI Temp °C Hum % Pres Pa CO μg/m³ H₂S μg/m³ NO μg/m³ NO₂ μg/m³ O₃ μg/m³ SO₂ μg/m³ PM1 μg/m³ PM2.5 μg/m³ PM10 μg/m³
Thursday 16 July 2026
03:22 1 16.7 76 40,241 0.13 0 0 1.97 16.86 0 7.13 9.01 14.07
03:21 1 16.7 76 40,264 0.13 0 0 1.77 16.91 0 7.84 9.49 14.66
03:20 1 16.7 76 40,280 0.15 0 0 1.77 16.48 0 5.7 7.58 12.28
03:18 1 16.7 76 40,322 0.14 0 0 2.27 16.88 0 7.13 9.49 13.47
03:17 1 16.8 75 40,341 0.14 0 0 2.75 18.19 0 7.13 9.02 13.48
03:15 1 16.8 75 40,393 0.14 0 0 1.75 18.45 0 7.84 10.45 16.45
03:10 1 16.8 75 40,381 0.15 0 0 2.35 15.62 0 6.41 9.5 13.48
03:08 1 16.9 75 40,472 0.16 0 0 2.33 17.46 0 7.13 9.97 15.26
03:07 1 16.9 76 40,487 0.14 0 0 2.22 16.51 0 7.13 10.45 15.85
03:05 1 16.9 76 40,461 0.16 0 1.79 4.82 14.44 0 7.13 9.01 14.07
02:56 1 17 76 39,986 0.14 0 0 2.09 17 0 7.13 10.45 14.66
02:55 1 17 76 39,893 0.15 0 0 2.29 17.91 0 7.13 10.45 15.25
02:54 1 17 76 39,788 0.14 0 0 2.28 18.32 0 6.41 8.05 12.28
02:53 1 17 76 39,653 0.14 0 0.05 2.48 17.74 0 7.13 10.92 17.03
02:52 1 17 76 39,486 0.14 0 0 2.48 17.09 0 6.41 9.48 15.25
02:51 1 17 76 39,364 0.14 0 0 2.48 17.52 0 8.55 9.01 16.43
02:50 1 17 76 39,211 0.13 0 0 3.08 17.9 0 7.13 9.96 15.84
02:49 1 17 76 39,119 0.13 0 0 2.38 18.3 0 7.13 10.92 15.84
02:48 1 17.1 76 38,991 0.13 0 1.93 2.85 16.8 0 7.13 9.96 15.84
02:47 1 17.1 76 38,885 0.14 0 0 2.04 18.07 0 6.41 7.56 11.09